Location: Exeidioux
(45.6312°N, 1.6819°E)
Time: 13:42:13
(UTC+00:00)

SL-08 RB Rocket - Pass Details

Date: 03 March 2021
Orbit: 647 x 683 km, 97.8° (Epoch: 16 April)

Event Time Altitude Azimuth Distance (km) Brightness Sun altitude
Rises 18:50:03 0° 159° (SSE) 2,963 6.8 -12.5°
Reaches altitude 10° 18:52:14 10° 157° (SSE) 2,061 6.0 -12.9°
Maximum altitude 18:56:43 70° 75° (ENE) 706 3.6 -13.7°
Drops below altitude 10° 19:01:16 10° 351° (N) 2,099 6.4 -14.5°
Sets 19:03:32 0° 350° (N) 3,023 7.3 -14.9°
